[[{"header":{"parameterUnit":"m.s-1","parameterCategory":1,"la1":30.2991,"la2":30.254,"lo1":-89.0895,"lo2":-89.0444,"dy":0.0017,"dx":0.0017,"nx":28,"ny":28,"refTime":"2024-03-17T03:00:00:Z","depth":0,"parameterNumber":2,"parameterNumberName":"U-component_of_WINDS"},"data":[0,0,0,0,0,0,0,0,0,0,0,0,0,0,0,0,0,0,0,0,0,0,0,0,0,0,0,0,0,0,0,0,0,0,0,0,0,0,0,0,0,0,0,0,0,0,0,0,0,0,0,0,0,0,0,0,0,0,-2.7592,-2.7592,0,-2.7512,-2.7511,-2.751,-2.7417,-2.7416,-2.7414,-2.7413,-2.7329,-2.7328,-2.7327,0,0,0,0,0,0,0,0,0,0,0,0,0,-2.7666,-2.7665,-2.7592,-2.7591,-2.759,-2.7512,-2.7511,-2.751,-2.7417,-2.7416,-2.7414,-2.7412,-2.7329,-2.7328,-2.7327,0,0,0,0,0,0,0,0,0,0,0,0,0,-2.7615,-2.7665,-2.7593,-2.7535,-2.7529,-2.7512,-2.7511,-2.7509,-2.7418,-2.7416,-2.7413,-2.7412,-2.7329,-2.7328,-2.7326,-2.7359,0,0,-2.7322,-2.7321,0,0,0,0,0,0,0,0,-2.7618,-2.7612,-2.7544,-2.7539,-2.7532,-2.7472,-2.7505,-2.7459,-2.7418,-2.746,-2.7413,-2.7411,-2.7378,-2.7372,-2.7362,-2.7355,-2.7352,-2.7322,-2.7321,-2.732,-2.732,0,0,0,0,0,0,0,-2.7621,-2.7615,-2.756,-2.7544,-2.7536,-2.7513,-2.7503,-2.7496,-2.7432,-2.7456,-2.7449,-2.7441,-2.7374,-2.7363,-2.7359,-2.735,-2.7322,-2.7321,-2.732,-2.7319,-2.7369,-2.7371,0,0,0,0,0,0,-2.7634,-2.7618,-2.7563,-2.7558,-2.7571,-2.7513,-2.7502,-2.7494,-2.7431,-2.742,-2.7443,-2.7437,-2.7367,-2.7361,-2.7356,-2.7392,-2.7321,-2.7319,-2.7318,-2.7367,-2.7369,-2.7371,0,0,0,0,0,0,-2.7636,-2.763,-2.7566,-2.7586,-2.7576,-2.7514,-2.7505,-2.7493,-2.7482,-2.7421,-2.7409,-2.7444,-2.7365,-2.7358,-2.736,-2.7388,-2.7319,-2.7317,-2.7364,-2.7367,-2.737,-2.7464,0,0,0,0,0,0,-2.7638,-2.7631,-2.7643,-2.7587,-2.7576,-2.7572,-2.7507,-2.7493,-2.748,-2.7472,-2.7419,-2.7408,-2.7363,-2.7362,-2.7358,-2.7384,-2.7316,-2.7361,-2.7365,-2.7369,-2.7458,-2.747,-2.748,0,0,0,0,0,-2.7641,-2.7671,-2.7644,-2.7638,-2.759,-2.7574,-2.7567,-2.7515,-2.7483,-2.7494,-2.7456,-2.741,-2.7385,-2.7363,-2.7358,-2.7384,-2.7359,-2.7364,-2.7369,-2.7453,-2.7467,-2.748,0,0,0,0,0,0,-2.7731,-2.7663,-2.7632,-2.7645,-2.7616,-2.7558,-2.7571,-2.7531,-2.751,-2.7503,-2.7438,-2.7427,-2.7437,-2.741,-2.7387,-2.7413,-2.7366,-2.737,-2.7431,-2.7444,-2.7455,-2.7462,-2.7315,0,0,0,0,0,-2.7753,-2.7746,-2.7686,-2.7704,-2.7691,-2.7634,-2.7625,-2.7587,-2.7554,-2.7541,-2.7502,-2.7472,-2.7457,-2.7449,-2.7432,-2.7453,-2.7441,-2.7468,-2.7479,-2.7489,-2.7493,-2.7505,-2.7517,-2.7388,-2.7387,-2.7387,0,0,-2.7797,-2.7759,-2.7758,-2.7721,-2.7694,-2.7689,-2.7624,-2.7621,-2.7616,-2.754,-2.7541,-2.7511,-2.7473,-2.7485,-2.7489,-2.7463,-2.7526,-2.7495,-2.7503,-2.7502,-2.7511,-2.7523,-2.7534,-2.7391,-2.739,-2.739,0,0,-2.7875,-2.7845,-2.7857,-2.7832,-2.7792,-2.7754,-2.7758,-2.7706,-2.7684,-2.7683,-2.7627,-2.762,-2.7595,-2.7571,-2.7556,-2.7626,-2.7584,-2.7622,-2.7681,-2.7692,-2.7703,-2.7711,-2.7739,-2.7749,-2.7627,-2.7627,-2.7627,0,-2.7935,-2.7925,-2.7869,-2.787,-2.7856,-2.7787,-2.78,-2.7778,-2.7735,-2.7726,-2.7698,-2.7668,-2.7637,-2.7644,-2.7661,-2.765,-2.7652,-2.7629,-2.7706,-2.7714,-2.7721,-2.7747,-2.7757,-2.7632,-2.7632,-2.7631,-2.7631,0,-2.8002,-2.7996,-2.8011,-2.7973,-2.796,-2.7966,-2.7911,-2.7905,-2.7868,-2.7833,-2.7834,-2.7795,-2.777,-2.7768,-2.7731,-2.777,-2.7756,-2.7718,-2.7669,-2.774,-2.7763,-2.7772,-2.7639,-2.7638,-2.7636,-2.7635,0,0,-2.8135,-2.8066,-2.8073,-2.8056,-2.8007,-2.8002,-2.8005,-2.7982,-2.7979,-2.7951,-2.7954,-2.7935,-2.79,-2.7882,-2.7842,-2.7853,-2.7914,-2.7813,-2.7811,-2.7835,-2.7957,-2.7988,-2.8,-2.7885,-2.7887,-2.7888,-2.7961,0,-2.8207,-2.8211,-2.816,-2.8178,-2.8173,-2.8108,-2.8112,-2.8083,-2.805,-2.8041,-2.8004,-2.7994,-2.7947,-2.7936,-2.7943,-2.7905,-2.7938,-2.7899,-2.7888,-2.7889,-2.7902,-2.8011,-2.8044,-2.8114,-2.7969,-2.7971,-2.7972,0,-2.8291,-2.827,-2.8288,-2.824,-2.8236,-2.824,-2.8216,-2.8207,-2.8173,-2.8149,-2.813,-2.8085,-2.8086,-2.8038,-2.8039,-2.8014,-2.8006,-2.7987,-2.7989,-2.7987,-2.7936,-2.8015,-2.8135,-2.8147,-2.7985,-2.7984,-2.7983,0,-2.839,-2.8365,-2.8373,-2.836,-2.8304,-2.8309,-2.8286,-2.825,-2.8239,-2.8217,-2.821,-2.8188,-2.8177,-2.8161,-2.8111,-2.8081,-2.8119,-2.8066,-2.81,-2.8101,-2.8112,-2.8113,-2.8235,-2.8104,-2.8104,-2.8104,-2.8103,0,-2.8476,-2.849,-2.8417,-2.8422,-2.8436,-2.8378,-2.8393,-2.8364,-2.8333,-2.8331,-2.8273,-2.8273,-2.8206,-2.8199,-2.8159,-2.8168,-2.8162,-2.8143,-2.8133,-2.815,-2.8153,-2.8146,-2.814,-2.8106,-2.8106,-2.8105,-2.8105,0,-2.8589,-2.8541,-2.8546,-2.8493,-2.848,-2.8493,-2.8448,-2.8451,-2.8415,-2.8414,-2.841,-2.8354,-2.8342,-2.8291,-2.8266,-2.824,-2.8262,-2.8241,-2.8275,-2.8268,-2.8306,-2.8304,-2.843,-2.8444,-2.8302,-2.8303,-2.8305,0,-2.8649,-2.8658,-2.8607,-2.8603,-2.8583,-2.8575,-2.8565,-2.8508,-2.8499,-2.8462,-2.847,-2.8454,-2.8438,-2.8422,-2.8379,-2.8361,-2.834,-2.8385,-2.8336,-2.8354,-2.8343,-2.8344,-2.8346,-2.8396,-2.8398,-2.84,-2.8401,0,-2.876,-2.8736,-2.8724,-2.8704,-2.8693,-2.8674,-2.8651,-2.8651,-2.8587,-2.8581,-2.8569,-2.8557,-2.8533,-2.8518,-2.8493,-2.8468,-2.8425,-2.8416,-2.8423,-2.8442,-2.8462,-2.8454,-2.8306,-2.8414,-2.8413,-2.8412,-2.8411,-2.841,-2.885,-2.8856,-2.8822,-2.881,-2.8788,-2.8768,-2.8769,-2.8734,-2.8723,-2.87,-2.8667,-2.866,-2.8626,-2.8588,-2.8567,-2.8561,-2.8536,-2.8546,-2.8549,-2.8553,-2.8562,-2.8462,-2.8556,-2.8555,-2.8555,-2.8555,-2.8554,0,-2.896,-2.8935,-2.8925,-2.8897,-2.8888,-2.8848,-2.8821,-2.8816,-2.8811,-2.8784,-2.877,-2.8758,-2.8743,-2.87,-2.8681,-2.8685,-2.8664,-2.8682,-2.8682,-2.8678,-2.8584,-2.8581,-2.8699,-2.8699,-2.8699,-2.8699,-2.8699,-2.8699,-2.9017,-2.9027,-2.8999,-2.8997,-2.8971,-2.8965,-2.8953,-2.8935,-2.8914,-2.8902,-2.8891,-2.8862,-2.8829,-2.8808,-2.8793,-2.8781,-2.8778,-2.8802,-2.8784,-2.8698,-2.8684,-2.8671,-2.8668,-2.8802,-2.8802,-2.8878,-2.8878,-2.8879]},{"header":{"parameterUnit":"m.s-1","parameterCategory":1,"la1":30.2991,"la2":30.254,"lo1":-89.0895,"lo2":-89.0444,"dy":0.0017,"dx":0.0017,"nx":28,"ny":28,"refTime":"2024-03-17T03:00:00:Z","depth":0,"parameterNumber":3,"parameterNumberName":"V-component_of_WINDS"},"data":[0,0,0,0,0,0,0,0,0,0,0,0,0,0,0,0,0,0,0,0,0,0,0,0,0,0,0,0,0,0,0,0,0,0,0,0,0,0,0,0,0,0,0,0,0,0,0,0,0,0,0,0,0,0,0,0,0,0,-0.212,-0.212,0,-0.2144,-0.2144,-0.2144,-0.2158,-0.2158,-0.2158,-0.2158,-0.2182,-0.2182,-0.2183,0,0,0,0,0,0,0,0,0,0,0,0,0,-0.2083,-0.2084,-0.212,-0.212,-0.212,-0.2144,-0.2144,-0.2144,-0.2158,-0.2158,-0.2158,-0.2158,-0.2181,-0.2182,-0.2183,0,0,0,0,0,0,0,0,0,0,0,0,0,-0.2102,-0.2084,-0.2119,-0.213,-0.2131,-0.2144,-0.2144,-0.2145,-0.2158,-0.2158,-0.2158,-0.2158,-0.2181,-0.2182,-0.2183,-0.2187,0,0,-0.2186,-0.2186,0,0,0,0,0,0,0,0,-0.2101,-0.2104,-0.2128,-0.2129,-0.213,-0.2148,-0.214,-0.2159,-0.2158,-0.2147,-0.2158,-0.2158,-0.217,-0.2172,-0.2176,-0.2188,-0.2189,-0.2186,-0.2186,-0.2187,-0.2187,0,0,0,0,0,0,0,-0.21,-0.2103,-0.2129,-0.2128,-0.213,-0.2133,-0.2135,-0.2144,-0.2158,-0.2148,-0.2149,-0.2152,-0.2171,-0.2175,-0.2177,-0.219,-0.2186,-0.2186,-0.2187,-0.2187,-0.2207,-0.2207,0,0,0,0,0,0,-0.2097,-0.2102,-0.2128,-0.213,-0.2116,-0.2133,-0.2136,-0.2142,-0.2158,-0.2161,-0.2152,-0.2153,-0.2174,-0.2176,-0.2178,-0.2184,-0.2187,-0.2187,-0.2188,-0.2207,-0.2207,-0.2207,0,0,0,0,0,0,-0.2096,-0.2099,-0.2127,-0.2116,-0.212,-0.2134,-0.214,-0.2143,-0.2147,-0.2161,-0.2163,-0.2154,-0.2174,-0.2177,-0.2185,-0.2185,-0.2188,-0.2189,-0.2207,-0.2207,-0.2207,-0.2197,0,0,0,0,0,0,-0.2095,-0.2099,-0.2101,-0.2116,-0.212,-0.2134,-0.214,-0.2143,-0.2149,-0.215,-0.2164,-0.2166,-0.2174,-0.2184,-0.2186,-0.2187,-0.2189,-0.2207,-0.2207,-0.2207,-0.2198,-0.2197,-0.2196,0,0,0,0,0,-0.2094,-0.2097,-0.2101,-0.2104,-0.2123,-0.2134,-0.2137,-0.2147,-0.2149,-0.2151,-0.216,-0.2166,-0.2185,-0.2184,-0.2187,-0.2188,-0.2207,-0.2207,-0.2207,-0.2198,-0.2197,-0.2196,0,0,0,0,0,0,-0.2081,-0.2099,-0.2104,-0.2112,-0.2122,-0.2137,-0.2139,-0.2145,-0.2154,-0.2155,-0.2166,-0.2169,-0.2176,-0.2183,-0.2182,-0.2193,-0.2197,-0.2197,-0.2189,-0.2188,-0.2188,-0.2186,-0.219,0,0,0,0,0,-0.208,-0.2088,-0.2103,-0.2108,-0.2113,-0.2125,-0.213,-0.2137,-0.2147,-0.2151,-0.2161,-0.217,-0.2178,-0.2184,-0.2192,-0.2199,-0.2202,-0.2201,-0.22,-0.2199,-0.22,-0.2204,-0.2204,-0.2207,-0.2207,-0.2207,0,0,-0.2076,-0.2087,-0.2091,-0.2106,-0.2114,-0.2122,-0.2129,-0.2136,-0.2142,-0.2152,-0.2161,-0.2168,-0.2179,-0.2187,-0.2191,-0.2193,-0.22,-0.2199,-0.2199,-0.22,-0.2204,-0.2204,-0.2203,-0.2207,-0.2207,-0.2207,0,0,-0.2074,-0.2082,-0.2089,-0.2097,-0.2109,-0.2117,-0.2119,-0.2133,-0.2138,-0.2147,-0.2155,-0.2162,-0.2176,-0.2184,-0.2189,-0.219,-0.2196,-0.2192,-0.2189,-0.2193,-0.2193,-0.2193,-0.2193,-0.2193,-0.2193,-0.2192,-0.2192,0,-0.2067,-0.208,-0.2091,-0.2098,-0.2105,-0.2115,-0.2121,-0.2128,-0.2142,-0.2146,-0.2148,-0.2166,-0.2175,-0.2184,-0.2184,-0.2189,-0.2191,-0.2191,-0.2192,-0.2192,-0.2192,-0.2193,-0.2193,-0.2192,-0.2192,-0.2192,-0.2192,0,-0.2072,-0.208,-0.2083,-0.2098,-0.2104,-0.2111,-0.2123,-0.2128,-0.2134,-0.2142,-0.2151,-0.2161,-0.2172,-0.2175,-0.2181,-0.2185,-0.2186,-0.219,-0.2193,-0.2191,-0.2192,-0.2192,-0.2191,-0.2192,-0.2192,-0.2192,0,0,-0.2062,-0.2083,-0.2084,-0.209,-0.2105,-0.2112,-0.2118,-0.2129,-0.2134,-0.2143,-0.215,-0.2161,-0.2165,-0.2171,-0.2178,-0.2182,-0.2182,-0.2185,-0.2186,-0.2184,-0.2188,-0.2185,-0.2185,-0.2186,-0.2186,-0.2186,-0.2187,0,-0.2062,-0.2076,-0.2086,-0.2096,-0.2103,-0.2113,-0.2119,-0.2129,-0.2136,-0.2144,-0.2152,-0.216,-0.2164,-0.2168,-0.2172,-0.2181,-0.2183,-0.2181,-0.2191,-0.2192,-0.2189,-0.2186,-0.2183,-0.2184,-0.2187,-0.2187,-0.2188,0,-0.2064,-0.2074,-0.2084,-0.2098,-0.2102,-0.2107,-0.2118,-0.2125,-0.2136,-0.2141,-0.2149,-0.2156,-0.2164,-0.2166,-0.2177,-0.2175,-0.218,-0.2185,-0.2185,-0.2187,-0.219,-0.2187,-0.2184,-0.2184,-0.2188,-0.2188,-0.2188,0,-0.2056,-0.2072,-0.2081,-0.2086,-0.2102,-0.2106,-0.2113,-0.2124,-0.213,-0.2139,-0.2143,-0.2153,-0.2159,-0.2166,-0.2176,-0.2177,-0.2185,-0.2189,-0.219,-0.219,-0.2192,-0.2191,-0.2189,-0.2194,-0.2194,-0.2194,-0.2194,0,-0.2055,-0.2061,-0.2077,-0.2083,-0.209,-0.2101,-0.2108,-0.2115,-0.2125,-0.2132,-0.2141,-0.2147,-0.2159,-0.2166,-0.2174,-0.2182,-0.2184,-0.2188,-0.219,-0.2188,-0.2187,-0.2191,-0.2191,-0.2194,-0.2194,-0.2194,-0.2194,0,-0.2048,-0.2059,-0.2069,-0.2084,-0.2088,-0.2093,-0.2105,-0.2111,-0.2119,-0.2127,-0.213,-0.2142,-0.2151,-0.2162,-0.2174,-0.2179,-0.2187,-0.2189,-0.2183,-0.2184,-0.2185,-0.2185,-0.2186,-0.2186,-0.219,-0.219,-0.219,0,-0.2047,-0.2052,-0.2068,-0.2073,-0.208,-0.2088,-0.2095,-0.2106,-0.2112,-0.2125,-0.2129,-0.2139,-0.2147,-0.2161,-0.2172,-0.2181,-0.2184,-0.2184,-0.2186,-0.2183,-0.2185,-0.2184,-0.2185,-0.2183,-0.2183,-0.2183,-0.2183,0,-0.2044,-0.2049,-0.2058,-0.2069,-0.2077,-0.2086,-0.2095,-0.2099,-0.2112,-0.2118,-0.2128,-0.2135,-0.2148,-0.2157,-0.2168,-0.2175,-0.2181,-0.2182,-0.2183,-0.2181,-0.2177,-0.2179,-0.2182,-0.2182,-0.2182,-0.2182,-0.2183,-0.2183,-0.204,-0.2045,-0.2057,-0.2067,-0.2075,-0.2084,-0.209,-0.2099,-0.2107,-0.2119,-0.2125,-0.2134,-0.2145,-0.2161,-0.2167,-0.2175,-0.2177,-0.2178,-0.2178,-0.2178,-0.2178,-0.2176,-0.2177,-0.2177,-0.2177,-0.2177,-0.2177,0,-0.2038,-0.2046,-0.2055,-0.2068,-0.2076,-0.2081,-0.2092,-0.2098,-0.2106,-0.2116,-0.2124,-0.2135,-0.2145,-0.2156,-0.2166,-0.217,-0.2173,-0.2172,-0.2172,-0.2174,-0.2175,-0.2174,-0.217,-0.217,-0.217,-0.217,-0.217,-0.217,-0.2037,-0.2047,-0.2053,-0.2066,-0.2074,-0.2084,-0.209,-0.2098,-0.2106,-0.2118,-0.2126,-0.2133,-0.2143,-0.2154,-0.2163,-0.2166,-0.217,-0.2168,-0.2172,-0.2173,-0.2174,-0.2174,-0.2173,-0.2169,-0.2169,-0.217,-0.217,-0.217]}]]